User: anonymous   Login
Location: El Centro
(32.7920°N, 115.5620°W)
Time: 08:13:50
(UTC-07:00)
Language:

Hamsat - Orbit

View from above orbital plane
View from above orbital plane
View from above satellite
View from above satellite

Ground track
Ground track

The orbit data is extracted from the following two-line orbital elements,

1 28650U 05017B   15181.47280181  .00000674  00000-0  79841-4 0  9991
2 28650 097.5752 173.3336 0023892 351.7759 008.3063 14.87466516549427
Epoch (UTC): 30 June 2015 11:20:50
Eccentricity: 0.0023892
inclination: 97.5752°
perigee height: 589 km
apogee height: 622 km
right ascension of ascending node: 173.3336°
argument of perigee: 351.7759°
revolutions per day: 14.87466516
mean anomaly at epoch: 8.3063°
orbit number at epoch: 54942

The dashed part of the orbit path shows where the satellite is in the earth's shadow,  

DLR